One Loft Race

Training Toss 7

The birds had there final run before Sunday’s race from Agnes Water. They were released from Boonooroo (54 klm) at 10:00am, into clear skies with no wind.

Just a reminder only 3days left to pay outstanding entry fees

Pos Ringnumber Arrival Time OWNER
1 AU16NRC 0003963 10:56:55 C & B Matthews
2 AU16STAR0000073 10:57:00 Starkoff Loft
3 AU16GYMP0000663 10:57:00 Colin Dugmoore
4 AU16TRPC0002339 10:57:01 Cane View
5 AU16CAS 0000500 10:57:04 Casino Crew
6 AU16QPF 0008218 10:57:04 Beech & Gibbs
7 AU16SUNC0000016 10:57:06 Bill Groth
8 AU16GLAD0000014 10:57:06 Pradella Pieds
9 AU16GRPA0001353 10:57:07 Black Caviar Syndicate
10 AU16MKY 0000649 10:57:07 Mackay Pigeons
11 AU16MKY 0000915 10:57:09 Mackay Pigeons
12 AU16RIPA0000768 10:57:09 Peter & Ted
13 AU16QPF 0001309 10:57:09 Kevin Miller
14 AU16NRC 0002892 10:57:10 Emery & Commons
15 AU16QPF 0009049 10:57:11 Steve Beverly
16 AU16COFF0000540 10:57:12 Hilltop Hoods
17 AU16ARM 0000312 10:57:12 Greg Page
18 AU16MARY0001245 10:57:13 Wil Connally
19 AU16ANG 0000489 10:57:14 Colgate & Wortley
20 AU16GYMP0000687 10:57:15 Milton Mangoes
21 AU16GRPA0001422 10:57:15 Black Caviar Syndicate
21 AU16TCPC0000196 10:57:15 Geoff Hackett
23 AU16LMAC0000936 10:57:16 Laurie Dennis
24 AU16SC 0000079 10:57:17 Egg & Bacon Syndicate
25 AU16OLDB0000133 10:57:18 Millrose Loft
26 AU16QPF 0003388 10:57:20 Dave Stanfield
27 AU16LISM0003164 10:57:21 Loongana Lofts
28 AU16MARY0000859 10:57:21 Darnell & Minto
29 AU16CCF 0005098 10:57:25 Pol Weyton
30 AU16QPF 0009888 10:57:25 Ramal Harch
31 AU16ARM 0000508 10:57:27 Geoff Potts
32 AU16NRC 0001451 10:57:33 Delores & Gordon Oswald
33 AU16NRC 0003993 10:57:46 C & B Matthews
34 AU16TRPC0002319 10:57:47 Cane View
35 AU16IRPC0000189 10:57:47 Tony Garnett
36 AU17SAMD0000097 10:57:47 Pradella Pieds
37 AU16TWMB0001253 10:57:48 Bloomfield & Burton
38 AU16GYMP0000417 10:57:49 Lee Beattie
39 AU16QPF 0008224 10:57:49 Beech & Gibbs
40 AU16BALB0000075 10:57:50 East & Winkler
40 AU16QPF 0005637 10:57:50 Dave Tester
42 AU16LCPC0000826 10:57:50 Murrumba Syndicate
43 AU16SC 0000834 10:57:51 VIP Lofts
44 AU16QPF 0008608 10:57:51 JCV Loft
44 AU16GYMP0000835 10:57:51 Humpty Doo
46 AU16GYMP0000570 10:57:51 Pat & Jill Murphy
47 AU16SA 0006274 10:57:51 Pradella Pieds
47 AU16AUST0010531 10:57:51 Phoenix Lofts
49 AU16AUB 0001174 10:57:52 Shane Q
50 AU16GLAP0000015 10:57:53 Pradella Pieds
51 AU16RIPA0000763 10:57:53 Ted Hussie
52 AU16C0FS0000547 10:57:54 Painters & Plumbers
53 AU16UNIP0000138 10:57:55 JPS Syndicate
54 AU16GYMP0000588 10:57:55 Johnsen & Johnston
54 AU16COFF0000263 10:57:55 John Payne
56 AU16MARY0001246 10:57:56 Wil Connally
57 AU16STAR0000072 10:57:56 Starkoff Loft
58 AU16IRPC0000184 10:57:57 Tony Garnett
59 AU16DALB0000355 10:57:57 Kahilipso Lofts
60 AU16TRPC0002349 10:57:58 Cane View
60 AU16GLAD0000008 10:57:58 Pradella Pieds
62 AU16MKY 0000869 10:57:58 Forever Young Syndicate
63 AU16GRPA0001448 10:57:58 Pat & Jill Murphy
64 AU16MARY0000630 10:57:59 Darnell & Minto
65 AU16SC 0000881 10:57:59 WA Virals
66 AU16OLDB0000132 10:58:00 Millrose Loft
66 AU16ARM 0000530 10:58:00 Geoff Potts
66 AU16UNIP0000130 10:58:00 JPS Syndicate
69 AU16SA 0017055 10:58:00 S Pradella & Watson
69 AU16GYMP0000648 10:58:00 Bloomfield & Burton
71 AU16GYMP0000567 10:58:01 M Johnston
71 AU16MKY 0000207 10:58:01 Russ Beetham
71 AU16GYMP0000572 10:58:01 Geoff Potts
74 AU16BRPC0000591 10:58:02 Colin Dugmoore
75 AU16STAR0000045 10:58:03 Starkoff Loft
76 AU16GYMP0000527 10:58:04 Laurie Dennis
77 AU16NRC 0002218 10:58:04 Rangeview Lofts
78 AU16QPF 0010966 10:58:04 Kieran Malone
79 AU16DALB0000341 10:58:05 Kahilipso Lofts
80 AU16MKY 0000870 10:58:05 Mike Young
81 AU16LAKE0001616 10:58:05 VanJack Lofts
82 AU16GLAD0000013 10:58:06 Pradella Pieds
83 AU16TRPC0002323 10:58:06 Cane View
84 AU16WPF 0005055 10:58:07 Kauta - Wallarie
85 AU16GYMP0000568 10:58:07 Bennett Syndicate
86 AU16GRPA0001425 10:58:07 Black Caviar Syndicate
87 AU16ANG 0000487 10:58:07 Colgate & Wortley
87 AU16AUSN0003948 10:58:07 Rob Lindsay
89 AU16TWMB0001236 10:58:08 Bloomfield & Burton
90 AU16GYMP0000580 10:58:10 Sunswift Lofts
91 AU16GYMP0000608 10:58:12 Shane Q
92 AU16TWMB0001858 10:58:13 Black Caviar Syndicate
93 AU16SA 0017054 10:58:14 S Pradella & Watson
94 AU16GRPA0001496 10:58:14 Pat & Jill Murphy
95 AU16SC 0000053 10:58:15 Riley-P Syndicate
96 AU16QPF 0005182 10:58:15 Neelloc Syndicate
97 AU16SC 0000863 10:58:16 WA Virals
98 AU16RIPA0000531 10:58:17 Ken Tucker
99 AU16GYMP0000603 10:58:18 M Johnston
100 AU16BHPC0002374 10:58:18 Graham Temperly
101 AU16BHPC0000312 10:58:18 Bundy Snow Syndicate
102 AU16SC 0000864 10:58:20 VIP Lofts
103 AU16LMAC0001055 10:58:21 Laurie Dennis
104 AU16LMAC 1036 10:58:22 Laurie Dennis
105 AU16GLAD0000002 10:58:24 Pradella Pieds
106 AU16WPF 0005058 10:58:25 Kauta - Wallarie
107 AU16QPF 0007548 10:58:32 Coal Port Syndicate
108 AU16NRC 0002238 10:58:33 Rangeview Lofts
109 AU16SAMD0000011 10:58:34 Sunswift Lofts
110 AU16GYMP0000932 10:58:35 Des Lovell
111 AU16GRPA0001330 10:58:42 Black Caviar Syndicate
112 AU16SUNC0000014 10:58:53 Bill Groth
113 AU16GRPA0001419 10:58:54 Pat & Jill Murphy
114 AU16QPF 0005018 10:58:58 Beech & Gibbs
115 AU16TWMB0001257 10:59:02 Bloomfield & Burton
116 AU16COFF0000541 10:59:04 Hilltop Hoods
117 AU16TCPC0001507 10:59:04 M Johnston
118 AU17SAMD0000095 10:59:05 Nigel Cofey
118 AU16CAS 0000466 10:59:05 Casino Crew
120 AU16GYMP0000688 10:59:06 Commons & Treanor
121 AU16NRC 0002219 10:59:07 Rangeview Lofts
122 AU16SA 0017060 10:59:07 S Pradella & Watson
123 AU16ARM 0000304 10:59:08 Greg Page
124 AU16MKY 0000867 10:59:09 Forever Young Syndicate
125 AU16NRC 0001445 10:59:09 Delores & Gordon Oswald
125 AU16COFF0000524 10:59:09 Born to Fly
127 AU16QPF 10955 10:59:10 J & K Syndicate
128 AU16LMAC0001062 10:59:10 Laurie Dennis
129 AU16AUSN0003964 10:59:11 Kiwi Reg
130 AU16QPF 0010970 10:59:11 J & K Syndicate
131 AU16ROPC0001958 10:59:11 Mount Jackson Loft
131 AU16GYMP0000526 10:59:11 Mackay Pigeons
131 AU16TWMB0001980 10:59:11 Kamara Lofts
134 AU16NRC 0003654 10:59:12 Emery & Commons
135 AU17SAMD0000093 10:59:13 Nigel Cofey
136 AU16NRC 0002222 10:59:13 Rangeview Lofts
137 AU16ROPC0001950 10:59:13 Mount Jackson Loft
138 AU16SAMD0000017 10:59:14 Sunswift Lofts
139 AU16LMAC0001034 10:59:14 Laurie Dennis
140 AU16RIPA0000532 10:59:15 Ken Tucker
141 AU16LAKE0001621 10:59:16 VanJack Lofts
142 AU16GYMP0000658 10:59:16 JPS Syndicate
143 AU16IRPC0000195 10:59:17 Tony Garnett
144 AU16GYMP0000573 10:59:17 Pol Weyton
145 AU16STAR0000048 10:59:18 Starkoff Loft
146 AU16COFF0000526 10:59:18 Born to Fly
147 AU16QPF 0009372 10:59:19 W & K Racing
148 AU16TWMB0001255 10:59:19 Bloomfield & Burton
149 AU16CCF 0005110 10:59:19 Pol Weyton
150 AU16GYMP0000565 10:59:20 Ken Tucker
151 AU16GYMP0000673 10:59:20 Bloomfield & Burton
152 AU16TWMB0001435 10:59:21 Peter Burton
152 AU16MARY0000865 10:59:21 Darnell & Minto
154 AU16RIPA0000760 10:59:21 Peter & Ted
154 AU16UNIP0000127 10:59:21 JPS Syndicate
156 AU16TWMB0000096 10:59:21 Kauta - Wallarie
157 AU16TCPC0001330 10:59:22 Johnsen & Johnston
158 AU16ROPC0001118 10:59:23 Candioso
159 AU16SC 0001313 10:59:24 Forever Young Syndicate
160 AU16IRPC0000237 10:59:24 Andreas Flach
161 AU16MARY0001250 10:59:25 Wil Connally
162 AU16ARM 0000322 10:59:25 Greg Page
163 AU16GYMP0000406 10:59:25 Lee Beattie
164 AU17SAMD0000092 10:59:26 Bloomfield & Burton
165 AU16LMAC0002017 10:59:27 Rodney Howe
166 AU16BHPC0002387 10:59:27 Graham Temperly
167 AU16LAKE0001617 10:59:28 VanJack Lofts
168 AU16GRPA0001331 10:59:29 Black Caviar Syndicate
169 AU16NRC 0003642 10:59:29 P & P Emery
170 AU16TWMB0000435 10:59:30 Toowoomba Racing Pigeon Club
171 AU16QPF 0007554 10:59:31 Coal Port Syndicate
172 AU16SA 0010330 10:59:31 Barossa Bill
173 AU16NRC 0002214 10:59:32 Kehlet & Matthews
174 AU16LAKE0001624 10:59:35 VanJack Lofts
175 AU16MKY 0000865 10:59:39 Forever Young Syndicate
176 AU16GYMP0000647 10:59:39 Toowoomba Racing Pigeon Club
177 AU16ARM 0000512 10:59:40 Geoff Potts
178 AU16TWMB0001862 10:59:41 Black Caviar Syndicate
179 AU16AUSN0003972 10:59:41 Rob Lindsay
180 AU16QPF 0007555 10:59:42 Coal Port Syndicate
181 AU16LMAC0001030 10:59:43 Laurie Dennis
182 AU16QPF 0007551 10:59:44 Coal Port Syndicate
183 AU16IRPC0000279 10:59:46 Team Outback
184 AU16TWMB0001247 10:59:47 Bloomfield & Burton
185 AU16TRPC0000533 10:59:48 Ian Harvey Family
186 AU16OLDB0000146 10:59:48 Millrose Loft
187 AU16MARY0000867 10:59:49 Darnell & Minto
188 AU16MKY 0000221 10:59:49 Russ Beetham
189 AU16MARY0000855 10:59:49 Darnell & Minto
190 AU16MOON0000028 10:59:50 Robin White
191 AU16WPF 0005056 10:59:53 Alan Bowtell
192 AU16AUST0001589 10:59:56 Basil George
193 AU16QPF 0006560 10:59:56 Milton Mangoes
194 AU16BALB0000076 10:59:57 East & Winkler
195 AU16GRPA0001411 10:59:58 Pat & Jill Murphy
196 AU16QPF 0010929 11:00:02 J & K Syndicate
197 AU16SA 0019853 11:00:02 S Pradella & Watson
198 AU16SC 0000865 11:00:04 Egg & Bacon Syndicate
199 AU16AUB 0001156 11:00:21 Shane Q
200 AU16QPF 0010974 11:00:23 J & K Syndicate
201 AU16NRC 0002234 11:00:23 Rangeview Lofts
202 AU16AUST0001580 11:00:24 Basil George
203 AU16GYMP0000838 11:00:24 Humpty Doo
203 AU16SC 0000837 11:00:24 WA Virals
205 AU16WPF 0005057 11:00:25 Alan Bowtell
205 AU16TCPC0001531 11:00:25 M Johnston
207 AU16TWMB0000097 11:00:26 Kauta - Wallarie
208 AU16MKY 0000463 11:00:26 Ted Lewis
209 AU16GC 0000756 11:00:27 Commons & Treanor
210 AU16BHPC0000335 11:00:28 Bundy Snow Syndicate
211 AU16MKY 0000440 11:00:29 Mackay Pigeons
212 AU16TRPC0002314 11:00:29 Cane View
213 AU16NRC 0002899 11:00:30 Emery & Commons
214 AU16QPF 0005070 11:00:30 Beech & Gibbs
215 AU16MARY0001253 11:00:31 Wil Connally
216 AU16QPF 0008223 11:00:31 Beech & Gibbs
217 AU16GYMP0000661 11:00:32 Des Moore
218 AU16SC 0000836 11:00:32 WA Virals
218 AU16AUST0010534 11:00:32 Phoenix Lofts
220 AU16MKY 0000216 11:00:33 Russ Beetham
221 AU16WTB 0000715 11:00:34 Loongana Lofts
222 AU16GLAD0000015 11:00:36 Pradella Pieds
223 AU16TCPC0001523 11:00:36 M Johnston
224 AU16SC 0000882 11:00:37 Egg & Bacon Syndicate
225 AU16IRPC0000277 11:00:38 Team Outback
226 AU16AUST0001806 11:00:38 Karma Syndicate
227 AU16LCPC0000760 11:00:39 Kent Yang
228 AU16ROPC0001938 11:00:39 Mount Jackson Loft
228 AU16CAS 0000304 11:00:39 Karma Syndicate
230 AU16MKY 0000439 11:00:40 Bad Boys Syndicate
231 AU16GRPA0001473 11:00:40 Pat & Jill Murphy
232 AU16TCPC0001325 11:00:41 Johnsen & Johnston
232 AU16LCPC0000762 11:00:41 Kent Yang
234 AU16QPF 0007888 11:00:42 H & S Field
235 AU16AUST0010513 11:00:44 Phoenix Lofts
236 AU16DMAR0000007 11:00:45 Des Moore
237 AU16MKY 0000888 11:00:45 Mackay Pigeons
237 AU16ARM 0000506 11:00:45 Geoff Potts
239 AU16AUST0010517 11:00:45 Phoenix Lofts
240 AU16GYMP0000639 11:00:46 Laurie Dennis
241 AU16GYMP0000576 11:00:48 Barossa Bill
242 AU16MARY0001242 11:00:49 Wil Connally
243 AU16IRPC0000271 11:00:49 Team Outback
244 AU16STAR0000055 11:00:51 Starkoff Loft
245 AU16SC 0000835 11:00:51 Egg & Bacon Syndicate
245 AU16QPF 0000599 11:00:51 Pat & Jill Murphy
247 AU16RIPA0000772 11:00:51 Peter & Ted
248 AU16TRPC0002884 11:00:52 Gary Harvey
249 AU16QPF 0006556 11:00:52 Milton Mangoes
250 AU16QPF 0005681 11:00:53 Dave Tester
251 AU16SAMD0000014 11:00:53 Sunswift Lofts
251 AU16GYMP0000517 11:00:53 Kahilipso Lofts
253 AU16BHPC0000376 11:00:54 Bundy Snow Syndicate
254 AU16QPF 0010992 11:00:54 J & K Syndicate
255 AU16AUST0010512 11:00:54 Phoenix Lofts
256 AU16GRPA0001498 11:00:55 Pat & Jill Murphy
257 AU16LMAC0001044 11:00:55 Laurie Dennis
258 AU16NRC 0003657 11:00:56 Emery & Commons
259 AU16AUST0001573 11:00:57 Basil George
260 AU16TWMB0001856 11:00:59 Black Caviar Syndicate
261 AU16TWMB0001556 11:01:04 Toowoomba Racing Pigeon Club
262 AU16IRPC0000187 11:01:04 Tony Garnett
262 AU16STAR0000075 11:01:04 Starkoff Loft
264 AU16CAS 0000607 11:01:04 Casino Crew
265 AU16NRC 0002221 11:01:05 Rangeview Lofts
266 AU16TWMB0001773 11:01:17 Alan Bowtell
267 AU16AUST0001803 11:01:20 Karma Syndicate
268 AU16CAS 0000485 11:01:24 Casino Crew
269 AU16TCPC0001092 11:01:32 Geoff Hackett
270 AU16QPF 0008084 11:01:34 Ramal Harch
271 AU16AUSN0003949 11:01:43 Kiwi Reg
272 AU16TCPC0001310 11:02:25 Johnsen & Johnston
273 AU16GYMP0000662 11:02:32 Colin Dugmoore
274 AU16OLDB0000130 11:02:33 Millrose Loft
275 AU16CAS 0000303 11:02:40 Karma Syndicate
276 AU16LCPC0000757 11:02:45 Kent Yang
277 AU16TRPC0002416 11:02:46 Candioso
278 AU16SC 0000880 11:02:52 Egg & Bacon Syndicate
279 AU16QPF 0006149 11:02:54 Milton Mangoes
280 AU16DALB0000365 11:02:56 Kahilipso Lofts
281 AU16LCPC0000761 11:03:17 Kent Yang
282 AU16WPF 0005059 11:04:08 Kauta - Wallarie
283 AU16MKY 0000479 11:04:09 Bad Boys Syndicate
284 AU16TCPC0001501 11:05:40 M Johnston
285 AU16OLDB0000200 11:05:41 Millrose Loft
286 AU16GYMP0000943 11:05:42 Des Lovell
287 AU16TCPC0001042 11:08:52 Geoff Hackett
288 AU16QPF 0008222 11:11:49 Beech & Gibbs
289 AU16TWMB0001985 11:21:33 Kamara Lofts
290 AU16GYMP0000659 11:21:43 Lee Beattie
291 AU16TWMB0001771 11:21:44 Alan Bowtell
292 AU16NRC 0002860 11:21:45 P & P Emery
293 AU16GYMP0000681 11:22:08 Mackay Pigeons
294 AU16TCPC0001537 11:22:16 Johnsen & Johnston
295 AU16WPF 0005045 11:22:18 Kauta - Wallarie
296 AU16BRPC0000592 11:22:18 Colin Dugmoore
297 AU16NRC 0003653 11:22:18 P & P Emery
298 AU16TCPC0001505 11:22:19 M Johnston
299 AU16GYMP0000682 11:22:19 Kevin Miller
300 AU16GRPA0001401 11:22:20 Pat & Jill Murphy
301 AU16ARM 0000502 11:22:23 Geoff Potts
302 AU16GYMP0000655 11:22:24 Colin Dugmoore
303 AU16AUST0010530 11:22:24 Phoenix Lofts
304 AU16QPF 0010983 11:22:26 J & K Syndicate
305 AU16RIPA0000560 11:22:31 Ken Tucker
306 AU16QPF 0003387 12:02:44 Dave Stanfield
307 AU16ANG 0000486 13:15:34 Colgate & Wortley
308 AU16QPF 0003384 13:43:06 Dave Stanfield
309 AU16COFF0000525 14:15:01 Born to Fly
310 AU16GLAD0000005 14:59:32 Pradella Pieds
311 AU16GYMP0000660 16:03:33 Ted Lewis
312 AU16QPF 0008602 16:05:38 JCV Loft
313 AU16WPF 0006352 16:09:50 Pat & Jill Murphy
314 AU16GYMP0000571 16:09:52 Egg & Bacon Syndicate
315 AU16IRPC0000270 16:59:23 Team Outback
316 AU16GRPA0000557 17:21:58 Chris Butler